Time,TemperatureF,DewpointF,PressureIn,WindDirection,WindDirectionDegrees,WindSpeedMPH,WindSpeedGustMPH,Humidity,HourlyPrecipIn,Conditions,Clouds,dailyrainin,SoftwareType,DateUTC
2013-12-14 00:01:00,36.3,28.2,30.27,East,80,0.0,0.0,72,0.00,,,0.00,WUHU216DAVISVP2,2013-12-14 05:01:00,
2013-12-14 00:02:00,36.3,28.2,30.27,East,80,0.0,0.0,72,0.00,,,0.00,WUHU216DAVISVP2,2013-12-14 05:02:00,
2013-12-14 00:07:00,36.5,28.4,30.27,East,80,0.0,0.0,72,0.00,,,0.00,WUHU216DAVISVP2,2013-12-14 05:07:00,
2013-12-14 00:12:00,36.5,28.4,30.27,East,80,0.0,0.0,72,0.00,,,0.00,WUHU216DAVISVP2,2013-12-14 05:12:00,
2013-12-14 00:17:00,36.5,28.4,30.27,East,80,0.0,0.0,72,0.00,,,0.00,WUHU216DAVISVP2,2013-12-14 05:17:00,
2013-12-14 00:22:00,36.5,28.4,30.27,East,80,0.0,0.0,72,0.00,,,0.00,WUHU216DAVISVP2,2013-12-14 05:22:00,
2013-12-14 00:27:00,36.5,28.3,30.27,East,80,0.0,0.0,72,0.00,,,0.00,WUHU216DAVISVP2,2013-12-14 05:27:00,
2013-12-14 00:32:00,36.5,28.4,30.27,East,80,0.0,0.0,72,0.00,,,0.00,WUHU216DAVISVP2,2013-12-14 05:32:00,
2013-12-14 00:37:00,36.5,28.4,30.27,East,80,0.0,0.0,72,0.00,,,0.00,WUHU216DAVISVP2,2013-12-14 05:37:00,
2013-12-14 00:42:00,36.8,28.7,30.27,East,80,0.0,0.0,72,0.00,,,0.00,WUHU216DAVISVP2,2013-12-14 05:42:00,
2013-12-14 00:47:00,36.8,28.6,30.27,East,80,0.0,0.0,72,0.00,,,0.00,WUHU216DAVISVP2,2013-12-14 05:47:00,
2013-12-14 00:52:00,36.8,28.7,30.27,East,80,0.0,0.0,72,0.00,,,0.00,WUHU216DAVISVP2,2013-12-14 05:52:00,
2013-12-14 00:57:00,37.3,29.2,30.27,East,80,0.0,0.0,72,0.00,,,0.00,WUHU216DAVISVP2,2013-12-14 05:57:00,
2013-12-14 01:02:00,37.3,29.2,30.27,East,80,0.0,0.0,72,0.00,,,0.00,WUHU216DAVISVP2,2013-12-14 06:02:00,
2013-12-14 01:07:00,37.3,29.2,30.27,East,80,0.0,0.0,72,0.00,,,0.00,WUHU216DAVISVP2,2013-12-14 06:07:00,
2013-12-14 01:12:00,37.3,29.1,30.27,East,80,0.0,0.0,72,0.00,,,0.00,WUHU216DAVISVP2,2013-12-14 06:12:00,
2013-12-14 01:17:00,37.3,29.2,30.27,East,80,0.0,0.0,72,0.00,,,0.00,WUHU216DAVISVP2,2013-12-14 06:17:00,
2013-12-14 01:22:00,37.3,29.2,30.26,East,80,0.0,0.0,72,0.00,,,0.00,WUHU216DAVISVP2,2013-12-14 06:22:00,
2013-12-14 01:27:00,37.5,29.4,30.26,East,80,0.0,0.0,72,0.00,,,0.00,WUHU216DAVISVP2,2013-12-14 06:27:00,
2013-12-14 01:32:00,37.6,29.5,30.26,East,80,0.0,0.0,72,0.00,,,0.00,WUHU216DAVISVP2,2013-12-14 06:32:00,
2013-12-14 01:37:00,37.6,29.5,30.25,East,80,0.0,0.0,72,0.00,,,0.00,WUHU216DAVISVP2,2013-12-14 06:37:00,
2013-12-14 01:42:00,37.6,29.5,30.25,East,80,0.0,0.0,72,0.00,,,0.00,WUHU216DAVISVP2,2013-12-14 06:42:00,
2013-12-14 01:47:00,37.6,29.5,30.25,East,80,0.0,0.0,72,0.00,,,0.00,WUHU216DAVISVP2,2013-12-14 06:47:00,
2013-12-14 01:52:00,37.6,29.5,30.25,East,80,0.0,0.0,72,0.00,,,0.00,WUHU216DAVISVP2,2013-12-14 06:52:00,
2013-12-14 01:57:00,37.6,29.5,30.25,East,80,0.0,0.0,72,0.00,,,0.00,WUHU216DAVISVP2,2013-12-14 06:57:00,
2013-12-14 02:02:00,37.8,30.6,30.25,East,80,0.0,0.0,75,0.00,,,0.00,WUHU216DAVISVP2,2013-12-14 07:02:00,
2013-12-14 02:07:00,37.8,30.6,30.25,East,80,0.0,0.0,75,0.00,,,0.00,WUHU216DAVISVP2,2013-12-14 07:07:00,
2013-12-14 02:12:00,37.8,30.6,30.25,East,80,0.0,0.0,75,0.00,,,0.00,WUHU216DAVISVP2,2013-12-14 07:12:00,
2013-12-14 02:17:00,37.8,30.6,30.25,East,80,0.0,0.0,75,0.00,,,0.00,WUHU216DAVISVP2,2013-12-14 07:17:00,
2013-12-14 02:22:00,37.8,30.6,30.25,East,80,0.0,0.0,75,0.00,,,0.00,WUHU216DAVISVP2,2013-12-14 07:22:00,
2013-12-14 02:27:00,37.8,30.6,30.25,East,80,0.0,0.0,75,0.00,,,0.00,WUHU216DAVISVP2,2013-12-14 07:27:00,
2013-12-14 02:32:00,37.9,30.7,30.25,East,80,0.0,0.0,75,0.00,,,0.00,WUHU216DAVISVP2,2013-12-14 07:32:00,
2013-12-14 02:37:00,37.9,30.1,30.25,East,80,0.0,0.0,73,0.00,,,0.00,WUHU216DAVISVP2,2013-12-14 07:37:00,
2013-12-14 02:42:00,37.9,30.0,30.25,East,80,0.0,0.0,73,0.00,,,0.00,WUHU216DAVISVP2,2013-12-14 07:42:00,
2013-12-14 02:47:00,37.9,30.1,30.25,East,80,0.0,0.0,73,0.00,,,0.00,WUHU216DAVISVP2,2013-12-14 07:47:00,
2013-12-14 02:52:00,37.9,30.0,30.27,East,80,0.0,0.0,73,0.00,,,0.00,WUHU216DAVISVP2,2013-12-14 07:52:00,
2013-12-14 02:57:00,37.9,30.1,30.27,East,80,0.0,0.0,73,0.00,,,0.00,WUHU216DAVISVP2,2013-12-14 07:57:00,
2013-12-14 03:02:00,37.9,30.1,30.27,East,80,0.0,0.0,73,0.00,,,0.00,WUHU216DAVISVP2,2013-12-14 08:02:00,
2013-12-14 03:07:00,37.9,30.1,30.26,East,80,0.0,0.0,73,0.00,,,0.00,WUHU216DAVISVP2,2013-12-14 08:07:00,
2013-12-14 03:12:00,37.9,29.7,30.26,East,80,0.0,0.0,72,0.00,,,0.00,WUHU216DAVISVP2,2013-12-14 08:12:00,
2013-12-14 03:17:00,37.9,29.7,30.26,East,80,0.0,0.0,72,0.00,,,0.00,WUHU216DAVISVP2,2013-12-14 08:17:00,
2013-12-14 03:22:00,37.9,29.7,30.25,East,80,0.0,0.0,72,0.00,,,0.00,WUHU216DAVISVP2,2013-12-14 08:22:00,
2013-12-14 03:27:00,38.2,30.0,30.25,East,80,0.0,0.0,72,0.00,,,0.00,WUHU216DAVISVP2,2013-12-14 08:27:00,
2013-12-14 03:32:00,38.2,30.0,30.25,East,80,0.0,0.0,72,0.00,,,0.00,WUHU216DAVISVP2,2013-12-14 08:32:00,
2013-12-14 03:37:00,38.3,30.1,30.27,East,80,0.0,0.0,72,0.00,,,0.00,WUHU216DAVISVP2,2013-12-14 08:37:00,
2013-12-14 03:42:00,38.3,30.1,30.27,East,80,0.0,0.0,72,0.00,,,0.00,WUHU216DAVISVP2,2013-12-14 08:42:00,
2013-12-14 03:47:00,38.3,30.1,30.27,East,80,0.0,0.0,72,0.00,,,0.00,WUHU216DAVISVP2,2013-12-14 08:47:00,
2013-12-14 03:52:00,38.3,30.1,30.27,East,80,0.0,0.0,72,0.00,,,0.00,WUHU216DAVISVP2,2013-12-14 08:52:00,
2013-12-14 03:57:00,38.3,30.1,30.27,East,80,0.0,0.0,72,0.00,,,0.00,WUHU216DAVISVP2,2013-12-14 08:57:00,
2013-12-14 04:02:00,38.2,30.4,30.27,East,80,0.0,0.0,73,0.00,,,0.00,WUHU216DAVISVP2,2013-12-14 09:02:00,
2013-12-14 04:07:00,38.2,30.4,30.26,East,80,0.0,0.0,73,0.00,,,0.00,WUHU216DAVISVP2,2013-12-14 09:07:00,
2013-12-14 04:12:00,38.2,30.4,30.26,East,80,0.0,0.0,73,0.00,,,0.00,WUHU216DAVISVP2,2013-12-14 09:12:00,
2013-12-14 04:17:00,38.2,30.3,30.26,East,80,0.0,0.0,73,0.00,,,0.00,WUHU216DAVISVP2,2013-12-14 09:17:00,
2013-12-14 04:22:00,38.3,30.5,30.24,East,80,0.0,0.0,73,0.00,,,0.00,WUHU216DAVISVP2,2013-12-14 09:22:00,
2013-12-14 04:27:00,38.3,30.4,30.24,East,80,0.0,0.0,73,0.00,,,0.00,WUHU216DAVISVP2,2013-12-14 09:27:00,
2013-12-14 04:32:00,38.3,30.5,30.24,East,80,0.0,0.0,73,0.00,,,0.00,WUHU216DAVISVP2,2013-12-14 09:32:00,
2013-12-14 04:37:00,38.3,30.5,30.25,East,80,0.0,0.0,73,0.00,,,0.00,WUHU216DAVISVP2,2013-12-14 09:37:00,
2013-12-14 04:42:00,38.2,30.4,30.25,East,80,0.0,0.0,73,0.00,,,0.00,WUHU216DAVISVP2,2013-12-14 09:42:00,
2013-12-14 04:47:00,38.2,30.4,30.25,East,80,0.0,0.0,73,0.00,,,0.00,WUHU216DAVISVP2,2013-12-14 09:47:00,
2013-12-14 04:52:00,38.2,30.4,30.25,East,80,0.0,0.0,73,0.00,,,0.00,WUHU216DAVISVP2,2013-12-14 09:52:00,
2013-12-14 04:57:00,38.2,30.4,30.25,East,80,0.0,0.0,73,0.00,,,0.00,WUHU216DAVISVP2,2013-12-14 09:57:00,
2013-12-14 05:02:00,38.2,30.4,30.25,East,80,0.0,0.0,73,0.00,,,0.00,WUHU216DAVISVP2,2013-12-14 10:02:00,
2013-12-14 05:07:00,38.2,30.4,30.26,East,80,0.0,0.0,73,0.00,,,0.00,WUHU216DAVISVP2,2013-12-14 10:07:00,
2013-12-14 05:12:00,38.2,31.0,30.26,East,80,0.0,0.0,75,0.00,,,0.00,WUHU216DAVISVP2,2013-12-14 10:12:00,
2013-12-14 05:17:00,38.2,31.0,30.26,East,80,0.0,0.0,75,0.00,,,0.00,WUHU216DAVISVP2,2013-12-14 10:17:00,
2013-12-14 05:22:00,38.2,31.0,30.25,East,80,0.0,0.0,75,0.00,,,0.00,WUHU216DAVISVP2,2013-12-14 10:22:00,
2013-12-14 05:27:00,38.2,31.0,30.25,East,80,0.0,0.0,75,0.00,,,0.00,WUHU216DAVISVP2,2013-12-14 10:27:00,
2013-12-14 05:32:00,38.2,31.0,30.25,East,80,0.0,0.0,75,0.00,,,0.00,WUHU216DAVISVP2,2013-12-14 10:32:00,
2013-12-14 05:37:00,38.2,31.0,30.24,East,80,0.0,0.0,75,0.00,,,0.00,WUHU216DAVISVP2,2013-12-14 10:37:00,
2013-12-14 05:42:00,38.2,31.0,30.24,East,80,0.0,0.0,75,0.00,,,0.00,WUHU216DAVISVP2,2013-12-14 10:42:00,
2013-12-14 05:47:00,38.2,31.0,30.24,East,80,0.0,0.0,75,0.00,,,0.00,WUHU216DAVISVP2,2013-12-14 10:47:00,
2013-12-14 05:52:00,38.3,31.1,30.23,East,80,0.0,0.0,75,0.00,,,0.00,WUHU216DAVISVP2,2013-12-14 10:52:00,
2013-12-14 05:57:00,38.3,31.1,30.23,East,80,0.0,0.0,75,0.00,,,0.00,WUHU216DAVISVP2,2013-12-14 10:57:00,
2013-12-14 06:02:00,38.3,31.1,30.23,East,80,0.0,0.0,75,0.00,,,0.00,WUHU216DAVISVP2,2013-12-14 11:02:00,
2013-12-14 06:07:00,38.5,31.3,30.24,East,80,0.0,0.0,75,0.00,,,0.00,WUHU216DAVISVP2,2013-12-14 11:07:00,
2013-12-14 06:12:00,38.5,31.3,30.24,East,80,0.0,0.0,75,0.00,,,0.00,WUHU216DAVISVP2,2013-12-14 11:12:00,
2013-12-14 06:17:00,38.5,31.3,30.24,East,80,0.0,0.0,75,0.00,,,0.00,WUHU216DAVISVP2,2013-12-14 11:17:00,
2013-12-14 06:22:00,38.9,31.7,30.26,East,80,0.0,0.0,75,0.00,,,0.00,WUHU216DAVISVP2,2013-12-14 11:22:00,
2013-12-14 06:27:00,38.9,31.7,30.26,East,80,0.0,0.0,75,0.00,,,0.00,WUHU216DAVISVP2,2013-12-14 11:27:00,
2013-12-14 06:32:00,39.2,32.0,30.26,East,80,0.0,0.0,75,0.00,,,0.00,WUHU216DAVISVP2,2013-12-14 11:32:00,
2013-12-14 06:37:00,39.2,32.0,30.23,East,80,0.0,0.0,75,0.00,,,0.00,WUHU216DAVISVP2,2013-12-14 11:37:00,
2013-12-14 06:42:00,39.2,31.7,30.23,East,80,0.0,0.0,74,0.00,,,0.00,WUHU216DAVISVP2,2013-12-14 11:42:00,
2013-12-14 06:47:00,39.2,31.7,30.23,East,80,0.0,0.0,74,0.00,,,0.00,WUHU216DAVISVP2,2013-12-14 11:47:00,
2013-12-14 06:52:00,39.2,31.7,30.22,East,80,0.0,0.0,74,0.00,,,0.00,WUHU216DAVISVP2,2013-12-14 11:52:00,
2013-12-14 06:57:00,39.1,31.9,30.22,East,80,0.0,0.0,75,0.00,,,0.00,WUHU216DAVISVP2,2013-12-14 11:57:00,
2013-12-14 07:02:00,38.9,31.7,30.22,East,80,0.0,0.0,75,0.00,,,0.00,WUHU216DAVISVP2,2013-12-14 12:02:00,
2013-12-14 07:07:00,38.9,31.7,30.23,East,80,0.0,0.0,75,0.00,,,0.00,WUHU216DAVISVP2,2013-12-14 12:07:00,
2013-12-14 07:12:00,38.9,31.7,30.23,East,80,0.0,0.0,75,0.00,,,0.00,WUHU216DAVISVP2,2013-12-14 12:12:00,
2013-12-14 07:17:00,38.6,31.4,30.23,East,80,0.0,0.0,75,0.00,,,0.00,WUHU216DAVISVP2,2013-12-14 12:17:00,
2013-12-14 07:22:00,38.6,31.7,30.23,East,80,0.0,0.0,76,0.00,,,0.00,WUHU216DAVISVP2,2013-12-14 12:22:00,
2013-12-14 07:27:00,38.6,31.7,30.23,East,80,0.0,0.0,76,0.00,,,0.00,WUHU216DAVISVP2,2013-12-14 12:27:00,
2013-12-14 07:32:00,38.6,31.7,30.23,East,80,0.0,0.0,76,0.00,,,0.00,WUHU216DAVISVP2,2013-12-14 12:32:00,
2013-12-14 07:37:00,38.6,32.1,30.23,East,80,0.0,0.0,77,0.00,,,0.00,WUHU216DAVISVP2,2013-12-14 12:37:00,
2013-12-14 07:42:00,38.6,32.1,30.23,East,80,0.0,0.0,77,0.00,,,0.00,WUHU216DAVISVP2,2013-12-14 12:42:00,
2013-12-14 07:47:00,38.6,32.1,30.23,East,80,0.0,0.0,77,0.00,,,0.00,WUHU216DAVISVP2,2013-12-14 12:47:00,
2013-12-14 07:52:00,38.0,31.5,30.24,East,80,0.0,0.0,77,0.00,,,0.00,WUHU216DAVISVP2,2013-12-14 12:52:00,
2013-12-14 07:57:00,38.0,31.4,30.24,East,80,0.0,0.0,77,0.00,,,0.00,WUHU216DAVISVP2,2013-12-14 12:57:00,
2013-12-14 08:02:00,38.0,31.4,30.24,East,80,0.0,0.0,77,0.00,,,0.00,WUHU216DAVISVP2,2013-12-14 13:02:00,
2013-12-14 08:07:00,38.0,31.4,30.24,East,80,0.0,0.0,77,0.00,,,0.00,WUHU216DAVISVP2,2013-12-14 13:07:00,
2013-12-14 08:12:00,38.8,32.2,30.24,East,80,0.0,0.0,77,0.00,,,0.00,WUHU216DAVISVP2,2013-12-14 13:12:00,
2013-12-14 08:17:00,38.8,32.2,30.24,East,80,0.0,0.0,77,0.00,,,0.00,WUHU216DAVISVP2,2013-12-14 13:17:00,
2013-12-14 08:23:00,39.2,32.6,30.23,East,80,0.0,0.0,77,0.00,,,0.00,WUHU216DAVISVP2,2013-12-14 13:23:00,
2013-12-14 08:28:00,39.2,32.6,30.23,SSW,200,0.0,0.0,77,0.00,,,0.00,WUHU216DAVISVP2,2013-12-14 13:28:00,
2013-12-14 08:34:00,40.1,33.5,30.22,SSW,202,0.0,0.0,77,0.00,,,0.00,WUHU216DAVISVP2,2013-12-14 13:34:00,
2013-12-14 08:39:00,40.1,33.5,30.22,East,92,0.0,0.0,77,0.00,,,0.00,WUHU216DAVISVP2,2013-12-14 13:39:00,
2013-12-14 08:44:00,40.1,33.5,30.22,East,92,0.0,0.0,77,0.00,,,0.00,WUHU216DAVISVP2,2013-12-14 13:44:00,
2013-12-14 08:49:00,41.3,34.6,30.23,South,185,0.0,0.0,77,0.00,,,0.00,WUHU216DAVISVP2,2013-12-14 13:49:00,
2013-12-14 08:54:00,41.6,34.9,30.23,South,191,0.0,0.0,77,0.00,,,0.00,WUHU216DAVISVP2,2013-12-14 13:54:00,
2013-12-14 08:59:00,41.6,35.0,30.23,ENE,73,0.0,0.0,77,0.00,,,0.00,WUHU216DAVISVP2,2013-12-14 13:59:00,
2013-12-14 09:04:00,42.2,35.6,30.23,East,79,0.0,0.0,77,0.00,,,0.00,WUHU216DAVISVP2,2013-12-14 14:04:00,
2013-12-14 09:09:00,42.2,35.6,30.23,East,89,0.0,0.0,77,0.00,,,0.00,WUHU216DAVISVP2,2013-12-14 14:09:00,
2013-12-14 09:14:00,42.2,35.6,30.23,East,89,0.0,0.0,77,0.00,,,0.00,WUHU216DAVISVP2,2013-12-14 14:14:00,
2013-12-14 11:14:00,47.0,31.2,30.15,ENE,69,0.0,0.0,54,0.00,,,0.00,WUHU216DAVISVP2,2013-12-14 16:14:00,
2013-12-14 11:19:00,46.7,31.0,30.14,SSW,192,0.0,0.0,54,0.00,,,0.00,WUHU216DAVISVP2,2013-12-14 16:19:00,
2013-12-14 11:25:00,46.7,31.0,30.14,East,88,0.0,0.0,54,0.00,,,0.00,WUHU216DAVISVP2,2013-12-14 16:25:00,
2013-12-14 11:30:00,46.7,32.3,30.14,SE,126,0.0,0.0,57,0.00,,,0.00,WUHU216DAVISVP2,2013-12-14 16:30:00,
2013-12-14 11:35:00,46.7,32.3,30.13,East,93,0.0,0.0,57,0.00,,,0.00,WUHU216DAVISVP2,2013-12-14 16:35:00,
2013-12-14 11:40:00,46.7,32.3,30.13,East,93,0.0,0.0,57,0.00,,,0.00,WUHU216DAVISVP2,2013-12-14 16:40:00,
2013-12-14 12:56:00,42.9,37.5,30.07,East,82,0.0,0.0,81,0.00,,,0.14,WUHU216DAVISVP2,2013-12-14 17:56:00,
2013-12-14 13:01:00,42.9,37.5,30.07,East,82,0.0,0.0,81,0.00,,,0.14,WUHU216DAVISVP2,2013-12-14 18:01:00,
2013-12-14 13:06:00,42.5,37.1,30.05,ENE,73,0.0,0.0,81,0.00,,,0.14,WUHU216DAVISVP2,2013-12-14 18:06:00,
2013-12-14 13:11:00,42.5,37.4,30.05,ENE,71,0.0,0.0,82,0.00,,,0.14,WUHU216DAVISVP2,2013-12-14 18:11:00,
2013-12-14 13:16:00,42.6,37.5,30.05,ENE,71,0.0,0.0,82,0.00,,,0.14,WUHU216DAVISVP2,2013-12-14 18:16:00,
2013-12-14 13:21:00,42.6,37.5,30.04,ENE,71,0.0,0.0,82,0.08,,,0.22,WUHU216DAVISVP2,2013-12-14 18:21:00,
2013-12-14 13:26:00,42.9,38.1,30.04,ENE,71,0.0,0.0,83,0.08,,,0.22,WUHU216DAVISVP2,2013-12-14 18:26:00,
2013-12-14 13:31:00,43.1,38.3,30.04,ENE,71,0.0,0.0,83,0.08,,,0.22,WUHU216DAVISVP2,2013-12-14 18:31:00,
2013-12-14 13:36:00,43.3,38.5,29.99,ENE,71,0.0,0.0,83,0.08,,,0.22,WUHU216DAVISVP2,2013-12-14 18:36:00,
2013-12-14 13:41:00,43.6,38.8,29.99,ENE,71,0.0,0.0,83,0.08,,,0.22,WUHU216DAVISVP2,2013-12-14 18:41:00,
2013-12-14 13:46:00,43.6,38.8,29.99,East,89,0.0,0.0,83,0.08,,,0.22,WUHU216DAVISVP2,2013-12-14 18:46:00,
2013-12-14 13:51:00,43.6,38.8,29.97,East,89,0.0,0.0,83,0.08,,,0.22,WUHU216DAVISVP2,2013-12-14 18:51:00,
2013-12-14 14:11:00,43.9,40.0,29.96,ENE,66,0.0,0.0,86,0.08,,,0.22,WUHU216DAVISVP2,2013-12-14 19:11:00,
2013-12-14 14:16:00,43.9,40.0,29.96,ENE,66,0.0,0.0,86,0.08,,,0.22,WUHU216DAVISVP2,2013-12-14 19:16:00,
2013-12-14 14:22:00,43.9,40.3,29.94,ENE,69,0.0,0.0,87,0.00,,,0.22,WUHU216DAVISVP2,2013-12-14 19:22:00,
2013-12-14 14:27:00,43.9,40.3,29.94,ESE,102,0.0,0.0,87,0.00,,,0.22,WUHU216DAVISVP2,2013-12-14 19:27:00,
2013-12-14 14:33:00,44.2,40.5,29.94,ENE,71,0.0,0.0,87,0.00,,,0.22,WUHU216DAVISVP2,2013-12-14 19:33:00,
2013-12-14 14:38:00,44.2,40.5,29.92,East,80,0.0,0.0,87,0.00,,,0.22,WUHU216DAVISVP2,2013-12-14 19:38:00,
2013-12-14 14:43:00,44.2,40.5,29.92,East,85,0.0,0.0,87,0.00,,,0.22,WUHU216DAVISVP2,2013-12-14 19:43:00,
2013-12-14 14:48:00,44.2,40.5,29.92,ENE,76,0.0,0.0,87,0.00,,,0.22,WUHU216DAVISVP2,2013-12-14 19:48:00,
2013-12-14 14:54:00,44.2,40.5,29.91,East,89,0.0,0.0,87,0.00,,,0.22,WUHU216DAVISVP2,2013-12-14 19:54:00,
2013-12-14 14:59:00,44.2,40.5,29.91,East,79,0.0,0.0,87,0.00,,,0.22,WUHU216DAVISVP2,2013-12-14 19:59:00,
2013-12-14 15:04:00,44.1,40.5,29.91,ENE,62,0.0,0.0,87,0.00,,,0.22,WUHU216DAVISVP2,2013-12-14 20:04:00,
2013-12-14 15:09:00,44.1,40.5,29.91,ENE,62,0.0,0.0,87,0.00,,,0.22,WUHU216DAVISVP2,2013-12-14 20:09:00,
2013-12-14 15:14:00,44.1,40.5,29.91,East,82,0.0,0.0,87,0.00,,,0.22,WUHU216DAVISVP2,2013-12-14 20:14:00,
2013-12-14 15:19:00,44.1,40.5,29.90,ENE,78,0.0,0.0,87,0.00,,,0.23,WUHU216DAVISVP2,2013-12-14 20:19:00,
2013-12-14 15:24:00,44.1,40.5,29.90,ENE,75,0.0,0.0,87,0.01,,,0.23,WUHU216DAVISVP2,2013-12-14 20:24:00,
2013-12-14 15:29:00,43.9,40.3,29.90,ENE,75,0.0,0.0,87,0.01,,,0.23,WUHU216DAVISVP2,2013-12-14 20:29:00,
2013-12-14 15:34:00,44.1,40.5,29.90,ENE,75,0.0,0.0,87,0.01,,,0.23,WUHU216DAVISVP2,2013-12-14 20:34:00,
2013-12-14 15:39:00,44.1,40.5,29.90,ENE,75,0.0,0.0,87,0.01,,,0.23,WUHU216DAVISVP2,2013-12-14 20:39:00,
2013-12-14 15:44:00,44.1,40.5,29.90,ENE,78,0.0,0.0,87,0.01,,,0.23,WUHU216DAVISVP2,2013-12-14 20:44:00,
2013-12-14 15:49:00,43.9,40.3,29.89,ENE,61,0.0,0.0,87,0.01,,,0.23,WUHU216DAVISVP2,2013-12-14 20:49:00,
2013-12-14 15:54:00,43.9,40.3,29.89,North,0,0.0,0.0,87,0.01,,,0.23,WUHU216DAVISVP2,2013-12-14 20:54:00,
2013-12-14 15:59:00,43.9,40.3,29.89,NNW,346,0.0,0.0,87,0.01,,,0.23,WUHU216DAVISVP2,2013-12-14 20:59:00,
2013-12-14 16:04:00,43.9,40.3,29.91,NNW,336,0.0,0.0,87,0.19,,,0.41,WUHU216DAVISVP2,2013-12-14 21:04:00,
2013-12-14 16:09:00,43.9,40.3,29.91,NNW,336,0.0,0.0,87,0.19,,,0.41,WUHU216DAVISVP2,2013-12-14 21:09:00,
2013-12-14 16:14:00,43.9,40.3,29.91,NNW,337,0.0,0.0,87,0.19,,,0.41,WUHU216DAVISVP2,2013-12-14 21:14:00,
2013-12-14 16:19:00,43.9,40.3,29.90,NNW,337,0.0,0.0,87,0.18,,,0.41,WUHU216DAVISVP2,2013-12-14 21:19:00,
2013-12-14 16:24:00,44.1,40.5,29.90,NNW,344,0.0,0.0,87,0.18,,,0.41,WUHU216DAVISVP2,2013-12-14 21:24:00,
2013-12-14 16:29:00,44.1,40.5,29.90,NNW,342,0.0,0.0,87,0.18,,,0.41,WUHU216DAVISVP2,2013-12-14 21:29:00,
2013-12-14 16:34:00,44.3,40.6,29.90,North,3,0.0,0.0,87,0.18,,,0.41,WUHU216DAVISVP2,2013-12-14 21:34:00,
2013-12-14 16:39:00,44.3,40.6,29.90,North,356,0.0,0.0,87,0.34,,,0.57,WUHU216DAVISVP2,2013-12-14 21:39:00,
2013-12-14 16:44:00,44.3,40.6,29.90,North,0,0.0,0.0,87,0.36,,,0.59,WUHU216DAVISVP2,2013-12-14 21:44:00,
2013-12-14 16:49:00,44.3,40.6,29.87,North,359,0.0,0.0,87,0.36,,,0.59,WUHU216DAVISVP2,2013-12-14 21:49:00,
2013-12-14 16:54:00,44.3,40.6,29.87,NNW,347,0.0,0.0,87,0.36,,,0.59,WUHU216DAVISVP2,2013-12-14 21:54:00,
2013-12-14 16:59:00,44.3,40.6,29.87,ENE,66,0.0,0.0,87,0.36,,,0.59,WUHU216DAVISVP2,2013-12-14 21:59:00,
2013-12-14 17:04:00,44.3,40.6,29.85,ENE,61,0.0,0.0,87,0.18,,,0.59,WUHU216DAVISVP2,2013-12-14 22:04:00,
2013-12-14 17:09:00,44.5,41.4,29.85,ENE,66,0.0,0.0,89,0.18,,,0.59,WUHU216DAVISVP2,2013-12-14 22:09:00,
2013-12-14 17:14:00,44.5,41.4,29.85,North,0,0.0,0.0,89,0.26,,,0.67,WUHU216DAVISVP2,2013-12-14 22:14:00,
2013-12-14 17:19:00,44.6,41.5,29.85,NNW,344,0.0,0.0,89,0.26,,,0.67,WUHU216DAVISVP2,2013-12-14 22:19:00,
2013-12-14 17:24:00,45.1,42.0,29.85,ENE,71,0.0,0.0,89,0.26,,,0.67,WUHU216DAVISVP2,2013-12-14 22:24:00,
2013-12-14 17:29:00,44.9,41.8,29.85,ENE,73,0.0,0.0,89,0.27,,,0.68,WUHU216DAVISVP2,2013-12-14 22:29:00,
2013-12-14 17:34:00,44.9,41.8,29.83,ENE,65,0.0,0.0,89,0.27,,,0.68,WUHU216DAVISVP2,2013-12-14 22:34:00,
2013-12-14 17:39:00,45.2,42.4,29.83,ENE,65,0.0,0.0,90,0.11,,,0.68,WUHU216DAVISVP2,2013-12-14 22:39:00,
2013-12-14 17:44:00,45.2,42.4,29.83,NNW,329,0.0,0.0,90,0.09,,,0.68,WUHU216DAVISVP2,2013-12-14 22:44:00,
2013-12-14 17:49:00,45.2,42.4,29.88,WNW,301,0.0,0.0,90,0.09,,,0.68,WUHU216DAVISVP2,2013-12-14 22:49:00,
2013-12-14 17:54:00,45.5,42.7,29.88,WNW,301,0.0,0.0,90,0.09,,,0.68,WUHU216DAVISVP2,2013-12-14 22:54:00,
2013-12-14 17:59:00,45.5,42.7,29.88,North,353,0.0,0.0,90,0.09,,,0.68,WUHU216DAVISVP2,2013-12-14 22:59:00,
2013-12-14 18:04:00,45.5,42.7,29.87,North,353,0.0,0.0,90,0.09,,,0.68,WUHU216DAVISVP2,2013-12-14 23:04:00,
2013-12-14 18:09:00,45.5,42.7,29.87,NW,318,0.0,0.0,90,0.09,,,0.68,WUHU216DAVISVP2,2013-12-14 23:09:00,
2013-12-14 18:14:00,45.5,42.7,29.87,NNW,330,0.0,0.0,90,0.01,,,0.68,WUHU216DAVISVP2,2013-12-14 23:14:00,
2013-12-14 18:19:00,45.5,42.7,29.86,NNW,330,0.0,0.0,90,0.07,,,0.74,WUHU216DAVISVP2,2013-12-14 23:19:00,
2013-12-14 18:24:00,45.5,42.7,29.86,NNW,330,0.0,0.0,90,0.08,,,0.75,WUHU216DAVISVP2,2013-12-14 23:24:00,
2013-12-14 18:29:00,45.5,42.7,29.86,NNW,330,0.0,0.0,90,0.07,,,0.75,WUHU216DAVISVP2,2013-12-14 23:29:00,
2013-12-14 18:34:00,45.5,42.7,29.84,NNW,330,0.0,0.0,90,0.07,,,0.75,WUHU216DAVISVP2,2013-12-14 23:34:00,
2013-12-14 18:39:00,45.5,42.7,29.84,NNW,330,0.0,0.0,90,0.07,,,0.75,WUHU216DAVISVP2,2013-12-14 23:39:00,
2013-12-14 18:44:00,45.5,42.7,29.84,NNW,330,0.0,0.0,90,0.07,,,0.75,WUHU216DAVISVP2,2013-12-14 23:44:00,
2013-12-14 18:49:00,46.1,43.3,29.84,NNW,330,0.0,0.0,90,0.07,,,0.75,WUHU216DAVISVP2,2013-12-14 23:49:00,
2013-12-14 18:54:00,46.1,43.3,29.84,NNW,330,0.0,0.0,90,0.07,,,0.00,WUHU216DAVISVP2,2013-12-14 23:54:00,
2013-12-14 18:59:00,46.1,43.3,29.84,NNW,330,0.0,0.0,90,0.07,,,0.00,WUHU216DAVISVP2,2013-12-14 23:59:00,
2013-12-14 19:04:00,45.8,43.0,29.84,WNW,289,0.0,0.0,90,0.07,,,0.00,WUHU216DAVISVP2,2013-12-15 00:04:00,
2013-12-14 19:09:00,45.8,43.0,29.84,North,3,0.0,0.0,90,0.07,,,0.00,WUHU216DAVISVP2,2013-12-15 00:09:00,
2013-12-14 19:14:00,45.8,43.0,29.84,North,0,0.0,0.0,90,0.07,,,0.00,WUHU216DAVISVP2,2013-12-15 00:14:00,
2013-12-14 19:19:00,45.5,42.7,29.84,North,0,0.0,0.0,90,0.01,,,0.00,WUHU216DAVISVP2,2013-12-15 00:19:00,
2013-12-14 19:24:00,45.5,42.7,29.84,NNW,344,0.0,0.0,90,0.00,,,0.00,WUHU216DAVISVP2,2013-12-15 00:24:00,
2013-12-14 19:29:00,46.0,43.2,29.84,NNW,344,0.0,0.0,90,0.00,,,0.00,WUHU216DAVISVP2,2013-12-15 00:29:00,
2013-12-14 19:34:00,45.5,42.7,29.83,NNW,347,0.0,0.0,90,0.00,,,0.00,WUHU216DAVISVP2,2013-12-15 00:34:00,
2013-12-14 19:39:00,46.0,43.2,29.83,NNW,347,0.0,0.0,90,0.00,,,0.00,WUHU216DAVISVP2,2013-12-15 00:39:00,
2013-12-14 19:44:00,45.5,42.7,29.83,NNW,347,0.0,0.0,90,0.00,,,0.00,WUHU216DAVISVP2,2013-12-15 00:44:00,
2013-12-14 19:49:00,45.5,42.7,29.81,NNW,330,0.0,0.0,90,0.00,,,0.00,WUHU216DAVISVP2,2013-12-15 00:49:00,
2013-12-14 19:54:00,45.4,42.6,29.81,North,356,0.0,0.0,90,0.00,,,0.00,WUHU216DAVISVP2,2013-12-15 00:54:00,
2013-12-14 19:59:00,45.4,42.6,29.81,North,357,0.0,0.0,90,0.00,,,0.00,WUHU216DAVISVP2,2013-12-15 00:59:00,
2013-12-14 20:04:00,45.5,42.7,29.81,NE,34,0.0,0.0,90,0.00,,,0.00,WUHU216DAVISVP2,2013-12-15 01:04:00,
2013-12-14 20:09:00,45.5,42.7,29.81,NNE,25,0.0,0.0,90,0.00,,,0.00,WUHU216DAVISVP2,2013-12-15 01:09:00,
2013-12-14 20:14:00,46.0,43.2,29.81,NNE,25,0.0,0.0,90,0.00,,,0.00,WUHU216DAVISVP2,2013-12-15 01:14:00,
2013-12-14 20:19:00,46.0,43.2,29.80,NNE,25,0.0,0.0,90,0.00,,,0.00,WUHU216DAVISVP2,2013-12-15 01:19:00,
2013-12-14 20:24:00,45.5,42.7,29.80,NNE,25,0.0,0.0,90,0.00,,,0.00,WUHU216DAVISVP2,2013-12-15 01:24:00,
2013-12-14 20:29:00,46.0,43.2,29.80,NNE,25,0.0,0.0,90,0.00,,,0.00,WUHU216DAVISVP2,2013-12-15 01:29:00,
2013-12-14 20:34:00,45.5,42.7,29.80,NNE,25,0.0,0.0,90,0.00,,,0.00,WUHU216DAVISVP2,2013-12-15 01:34:00,
2013-12-14 20:39:00,45.5,42.7,29.80,NNE,25,0.0,0.0,90,0.00,,,0.00,WUHU216DAVISVP2,2013-12-15 01:39:00,
2013-12-14 20:44:00,45.5,42.7,29.80,NNW,335,0.0,0.0,90,0.00,,,0.00,WUHU216DAVISVP2,2013-12-15 01:44:00,
2013-12-14 20:49:00,45.5,42.7,29.78,NNW,335,0.0,0.0,90,0.00,,,0.00,WUHU216DAVISVP2,2013-12-15 01:49:00,
2013-12-14 20:54:00,45.5,42.7,29.78,NNW,332,0.0,0.0,90,0.00,,,0.00,WUHU216DAVISVP2,2013-12-15 01:54:00,
2013-12-14 20:59:00,45.1,42.3,29.78,North,352,0.0,0.0,90,0.00,,,0.00,WUHU216DAVISVP2,2013-12-15 01:59:00,
2013-12-14 21:04:00,45.1,42.3,29.77,North,352,0.0,0.0,90,0.00,,,0.00,WUHU216DAVISVP2,2013-12-15 02:04:00,
2013-12-14 21:09:00,45.1,42.3,29.77,NW,326,0.0,0.0,90,0.00,,,0.00,WUHU216DAVISVP2,2013-12-15 02:09:00,
2013-12-14 21:14:00,45.5,42.7,29.77,NW,325,0.0,0.0,90,0.00,,,0.00,WUHU216DAVISVP2,2013-12-15 02:14:00,
2013-12-14 21:19:00,45.5,42.7,29.77,NW,323,0.0,0.0,90,0.00,,,0.00,WUHU216DAVISVP2,2013-12-15 02:19:00,
2013-12-14 21:24:00,45.2,42.4,29.77,WNW,298,0.0,0.0,90,0.00,,,0.00,WUHU216DAVISVP2,2013-12-15 02:24:00,
2013-12-14 21:29:00,45.2,42.4,29.77,WNW,298,0.0,0.0,90,0.00,,,0.00,WUHU216DAVISVP2,2013-12-15 02:29:00,
2013-12-14 21:34:00,45.2,42.4,29.77,WSW,254,0.0,0.0,90,0.00,,,0.00,WUHU216DAVISVP2,2013-12-15 02:34:00,
2013-12-14 21:39:00,45.7,42.9,29.77,West,274,0.0,0.0,90,0.00,,,0.00,WUHU216DAVISVP2,2013-12-15 02:39:00,
2013-12-14 21:44:00,45.2,42.4,29.77,West,274,0.0,0.0,90,0.00,,,0.00,WUHU216DAVISVP2,2013-12-15 02:44:00,
2013-12-14 21:49:00,45.2,42.4,29.79,West,274,0.0,0.0,90,0.00,,,0.00,WUHU216DAVISVP2,2013-12-15 02:49:00,
2013-12-14 21:54:00,45.2,42.4,29.79,NW,311,0.0,0.0,90,0.00,,,0.00,WUHU216DAVISVP2,2013-12-15 02:54:00,
2013-12-14 21:59:00,45.2,42.4,29.79,NW,318,0.0,0.0,90,0.00,,,0.00,WUHU216DAVISVP2,2013-12-15 02:59:00,
2013-12-14 22:04:00,45.4,42.6,29.79,NNW,328,0.0,0.0,90,0.00,,,0.00,WUHU216DAVISVP2,2013-12-15 03:04:00,
2013-12-14 22:09:00,45.2,42.4,29.79,NW,309,0.0,0.0,90,0.00,,,0.00,WUHU216DAVISVP2,2013-12-15 03:09:00,
2013-12-14 22:14:00,45.2,42.4,29.79,NW,315,0.0,0.0,90,0.00,,,0.00,WUHU216DAVISVP2,2013-12-15 03:14:00,
2013-12-14 22:19:00,45.2,42.4,29.77,NNW,343,0.0,0.0,90,0.00,,,0.00,WUHU216DAVISVP2,2013-12-15 03:19:00,
2013-12-14 22:24:00,45.2,42.4,29.77,NNW,339,0.0,0.0,90,0.00,,,0.00,WUHU216DAVISVP2,2013-12-15 03:24:00,
2013-12-14 22:29:00,45.2,42.4,29.77,NNW,339,0.0,0.0,90,0.00,,,0.00,WUHU216DAVISVP2,2013-12-15 03:29:00,
2013-12-14 22:34:00,45.4,42.6,29.75,NNW,339,0.0,0.0,90,0.00,,,0.00,WUHU216DAVISVP2,2013-12-15 03:34:00,
2013-12-14 22:39:00,45.7,42.9,29.75,NNW,339,0.0,0.0,90,0.00,,,0.00,WUHU216DAVISVP2,2013-12-15 03:39:00,
2013-12-14 22:44:00,45.2,42.4,29.75,NNW,339,0.0,0.0,90,0.00,,,0.00,WUHU216DAVISVP2,2013-12-15 03:44:00,
2013-12-14 22:49:00,45.2,42.4,29.75,NNW,339,0.0,0.0,90,0.00,,,0.00,WUHU216DAVISVP2,2013-12-15 03:49:00,
2013-12-14 22:54:00,45.2,42.4,29.75,NNW,339,0.0,0.0,90,0.00,,,0.00,WUHU216DAVISVP2,2013-12-15 03:54:00,
2013-12-14 22:59:00,45.2,42.7,29.75,NNW,339,0.0,0.0,91,0.00,,,0.00,WUHU216DAVISVP2,2013-12-15 03:59:00,
2013-12-14 23:04:00,45.2,42.7,29.76,NNW,339,0.0,0.0,91,0.00,,,0.00,WUHU216DAVISVP2,2013-12-15 04:04:00,
2013-12-14 23:09:00,45.2,42.7,29.76,NNW,339,0.0,0.0,91,0.00,,,0.00,WUHU216DAVISVP2,2013-12-15 04:09:00,
2013-12-14 23:14:00,45.2,42.7,29.76,NNW,339,0.0,0.0,91,0.00,,,0.00,WUHU216DAVISVP2,2013-12-15 04:14:00,
2013-12-14 23:19:00,45.2,42.7,29.76,NNW,339,0.0,0.0,91,0.00,,,0.00,WUHU216DAVISVP2,2013-12-15 04:19:00,
2013-12-14 23:24:00,45.2,42.7,29.76,NNW,337,0.0,0.0,91,0.00,,,0.00,WUHU216DAVISVP2,2013-12-15 04:24:00,
2013-12-14 23:29:00,45.2,42.7,29.76,NNW,337,0.0,0.0,91,0.00,,,0.00,WUHU216DAVISVP2,2013-12-15 04:29:00,
2013-12-14 23:34:00,45.2,42.7,29.76,NNW,340,0.0,0.0,91,0.00,,,0.00,WUHU216DAVISVP2,2013-12-15 04:34:00,
2013-12-14 23:39:00,45.1,42.6,29.76,NNW,342,0.0,0.0,91,0.00,,,0.00,WUHU216DAVISVP2,2013-12-15 04:39:00,
2013-12-14 23:44:00,45.1,42.6,29.76,NNW,340,0.0,0.0,91,0.00,,,0.00,WUHU216DAVISVP2,2013-12-15 04:44:00,
2013-12-14 23:49:00,44.9,42.4,29.75,North,0,0.0,0.0,91,0.00,,,0.00,WUHU216DAVISVP2,2013-12-15 04:49:00,
2013-12-14 23:54:00,44.9,42.4,29.75,North,0,0.0,0.0,91,0.00,,,0.00,WUHU216DAVISVP2,2013-12-15 04:54:00,
2013-12-14 23:59:00,44.8,42.3,29.75,NNW,346,0.0,0.0,91,0.00,,,0.00,WUHU216DAVISVP2,2013-12-15 04:59:00,